Simultaneous Nadir Overpasses (SNOs) Predictions

Prediction of SNOs between LANDSAT-8 and NOAA-19 Satellite Orbit:

Table of predicted SNOs for the next 14.0 days since TLE Epoch: 7/4/2020
Index Date (LANDSAT-8) Time (LANDSAT-8) Lat,Lon (LANDSAT-8) SZA (LANDSAT-8 ) Date (NOAA-19) Time (NOAA-19) Lat,Lon (NOAA-19) SZA (NOAA-19 ) Distance(km) Time Diff (sec)
1 07/05/2020 23:48:26 -79.80, 28.97 121.88 07/05/2020 23:47:55 -79.80, 28.88 121.90 1.90 31
2 07/06/2020 00:37:53 79.77,-163.65 58.07 07/06/2020 00:38:50 79.78,-163.61 58.11 1.84 57
3 07/08/2020 05:22:10 79.82, 125.67 58.38 07/08/2020 05:21:07 79.80, 125.76 58.35 3.09 63
4 07/08/2020 06:11:38 -79.79, -66.94 121.67 07/08/2020 06:12:12 -79.79, -67.00 121.65 1.37 34
5 07/10/2020 11:45:22 79.80, 29.73 58.63 07/10/2020 11:45:24 79.80, 29.78 58.63 1.12 2
6 07/12/2020 17:19:07 -79.82, 126.44 121.05 07/12/2020 17:18:46 -79.80, 126.49 121.07 2.43 21
7 07/12/2020 18:08:34 79.78, -66.23 58.90 07/12/2020 18:09:41 79.80, -66.21 58.94 1.96 67
8 07/14/2020 22:52:51 79.82,-136.94 59.30 07/14/2020 22:51:58 79.81,-136.89 59.28 1.71 53
9 07/14/2020 23:42:19 -79.80, 30.49 120.74 07/14/2020 23:43:03 -79.80, 30.52 120.72 0.57 44
10 07/17/2020 04:26:37 -79.81, -40.51 120.37 07/17/2020 04:25:25 -79.94, -41.68 120.36 27.10 72
